Location: Wildlife_Club
(35.6000°N, 81.4330°W)
Time: 03:19:11
(UTC-04:00)

A-11 Canister half - Pass Details

Date: 14 August 2020
Orbit: 1514 x 1686 km, 47.2° (Epoch: 23 September)

Event Time Altitude Azimuth Distance (km) Brightness Sun altitude
Rises 01:52:41 0° 300° (WNW) 4,893 11.9 -39.9°
Reaches altitude 10° 01:56:06 10° 292° (WNW) 3,920 11.2 -39.8°
Enters shadow 01:59:50 24° 278° (W) 2,995 10.4 -39.7°
